#timestamp,LO_Frequency,Hit,StdDev 
1539633615.7,286047002.3,N
1539633635.5,286047001.7,N
1539633655.4,286047001.8,N
1539633675.2,286047004.0,Y
1539633695.0,286047003.9,P
1539633695.9,286047003.9,N
1539633715.8,286047003.6,N
1539633735.6,286047003.5,N
1539633755.5,286047006.0,Y
1539633775.3,286047002.6,P
1539633795.1,286047004.3,P
1539633815.9,286047004.2,P
1539633835.7,286047001.5,N
1539633855.5,286047002.0,N
1539633875.4,286047002.3,N
1539633895.2,286047002.6,N
1539633915.1,286047002.6,N
1539633916.0,286047002.6,N
1539633935.8,286047002.6,Y
1539633955.4,286046998.3,P
1539633975.3,286046999.0,N
1539633995.1,286046999.6,N
1539634015.8,286046999.6,N
1539634035.7,286046999.1,N
1539634055.5,286046996.5,N
1539634075.4,286046999.2,N
1539634095.2,286046997.3,N
1539634115.0,286046997.1,N
1539634115.9,286046997.1,N
1539634135.8,286046997.4,N
1539634155.6,286046996.8,N
1539634175.4,286046997.4,N
1539634195.3,286046997.9,N
1539634215.1,286046998.0,N
1539634235.9,286046998.0,N
1539634255.5,286046998.0,N
1539634275.4,286046995.1,Y
1539634295.2,286046996.5,P
1539634315.0,286046997.8,N
1539634315.9,286046997.8,N
1539634335.8,286046994.9,Y
1539634355.6,286047001.2,P
1539634375.5,286047002.7,N
1539634395.3,286047002.7,N
1539634415.1,286047002.5,N
1539634435.9,286046999.7,N
1539634455.7,286046998.6,N
1539634475.5,286047000.7,N
1539634495.4,286047000.7,N
1539634515.2,286047000.8,N
1539634535.1,286047001.2,N
1539634536.0,286047001.2,N
1539634555.8,286047002.8,N
1539634575.6,286047000.6,N
1539634595.5,286047000.7,N
1539634615.3,286046998.1,N
1539634635.1,286047000.7,N
1539634655.9,286047001.2,N
1539634675.7,286047000.7,N
1539634695.6,286047000.4,N
1539634715.4,286047000.6,N
1539634735.2,286047001.2,N
1539634755.1,286047000.7,N
1539634756.0,286047000.7,N
1539634775.8,286047000.7,N
1539634795.6,286047000.2,N
1539634815.5,286047000.3,N
1539634835.6,286046999.3,N
1539634855.4,286046998.3,N
1539634875.2,286047000.5,N
1539634895.1,286047000.5,N
1539634896.0,286047000.5,N
1539634915.8,286047000.1,N
1539634935.7,286046999.7,N
1539634955.5,286046999.8,N
1539634975.3,286047000.2,N
1539634995.2,286046999.9,N
1539635015.0,286046999.7,N
1539635015.9,286046999.7,N
1539635035.7,286047000.2,N
1539635055.6,286047001.2,N
1539635075.4,286046998.5,N
1539635095.3,286047001.1,N
1539635115.1,286046998.6,N
1539635116.0,286046998.6,N
1539635135.8,286046999.4,N
1539635155.0,286046999.3,N
1539635155.9,286046999.3,N
1539635175.7,286046999.2,N
1539635195.6,286046999.5,N
1539635215.4,286046996.5,Y
1539635235.3,286046996.7,P
1539635255.1,286046996.6,N
1539635275.8,286046996.5,N
1539635295.7,286046996.5,N
1539635315.5,286046999.5,N
1539635335.4,286046998.6,N
1539635355.2,286047000.8,N
1539635375.0,286046999.2,N
1539635375.9,286046999.2,N
1539635395.8,286046999.4,N
1539635415.6,286046999.4,N
1539635435.8,286046999.6,N
1539635455.6,286046998.9,N
1539635475.5,286046998.9,N
1539635495.3,286046999.4,N
1539635515.1,286046999.6,N
1539635535.9,286046996.5,N
1539635555.7,286046998.8,N
1539635575.6,286046998.1,N
1539635595.4,286046999.3,N
1539635615.2,286046998.5,N
1539635635.3,286046999.4,N
1539635655.1,286046999.3,N
1539635675.9,286046996.7,N
1539635695.3,286046999.6,N
1539635715.2,286046999.1,N
1539635735.0,286046998.8,N
1539635735.9,286046998.8,N
1539635755.7,286047000.6,N
1539635775.6,286046999.2,N
1539635795.4,286046999.3,N
1539635815.3,286046997.7,N
1539635835.1,286046997.3,N
1539635855.8,286046997.9,N
1539635875.7,286046995.4,Y
1539635895.5,286046999.2,P
1539635915.4,286046998.9,P
1539635935.2,286046998.8,P
1539635955.0,286046999.4,Y
1539635955.9,286046999.4,P
1539635975.8,286047001.2,P
1539635995.6,286046998.9,N
1539636015.5,286046998.7,N
1539636035.3,286046998.5,N
1539636055.1,286046999.5,N
1539636075.9,286046999.4,N
1539636095.7,286046996.9,Y
1539636115.5,286046997.7,P
1539636135.4,286046997.0,P
1539636155.2,286046996.5,P
1539636175.1,286046996.8,Y
1539636176.0,286046996.8,P
1539636195.8,286047002.2,P
1539636215.6,286047000.2,N
1539636235.5,286047002.5,N
1539636255.3,286047000.5,N
1539636275.1,286047002.3,N
1539636295.9,286046998.5,N
1539636315.7,286046998.1,N
1539636335.6,286047000.9,N
1539636355.4,286046999.7,N
1539636375.2,286047000.9,N
1539636395.1,286046999.3,N
1539636396.0,286046999.3,N
1539636415.8,286046999.2,N
1539636435.6,286046999.5,N
1539636455.5,286047001.0,N
1539636475.3,286047001.1,N
1539636495.2,286047000.7,N
1539636515.9,286046999.9,N
1539636535.7,286046998.7,N
1539636555.6,286046998.3,N
1539636575.4,286047000.6,N
1539636595.3,286046998.1,N
1539636615.1,286047000.6,N
1539636616.0,286047000.6,N
1539636635.8,286047002.3,N
1539636655.7,286047000.2,N
1539636675.5,286046999.7,N
1539636695.3,286046999.9,N
1539636715.2,286047000.8,N
1539636735.0,286047000.0,N
1539636735.9,286047000.0,N
1539636755.8,286047000.8,N
1539636775.6,286047001.1,N
1539636795.4,286046998.6,N
1539636815.3,286046998.3,N
1539636835.1,286047000.1,N
1539636855.8,286047000.2,N
1539636875.7,286047000.1,N
1539636895.5,286047000.5,N
1539636945.4,286047000.5,E
1539636955.3,286046998.6,N
1539636975.1,286046998.4,P
1539636995.9,286046999.0,P
1539637015.7,286046999.4,N
1539637035.6,286046998.3,Y
1539637055.4,286047002.1,P
1539637075.2,286046998.2,N
1539637095.1,286047000.1,N
1539637096.0,286047000.1,N
1539637115.8,286047000.9,N
1539637135.7,286047000.8,N
1539637155.5,286047001.1,N
1539637175.3,286046998.1,N
1539637195.2,286047000.6,N
